Vorticity
nan nan nan nan nan nan nan nan nan nan nan nan nan nan nan nan nan nan nan nan nan nan nan nan nan nan nan nan nan nan nan nan nan nan nan nan nan nan nan nan nan nan nan
nan 8 8 4 4 5 5 6 6 5 5 5 6 5 5 5 5 4 5 5 5 5 5 5 5 5 5 6 7 6 5 5 5 6 7 4 2 4 5 5 5 7 nan
nan 7 8 6 5 5 5 5 5 5 5 5 5 4 4 4 5 5 5 5 5 4 4 6 5 5 5 6 5 4 3 3 5 5 1 2 6 7 5 5 5 6 nan
nan 6 9 8 5 5 5 5 5 6 5 5 5 5 4 5 5 5 6 5 5 5 5 6 5 5 5 4 4 4 2 2 2 2 2 7 8 5 5 4 5 6 nan
nan 8 10 8 5 4 5 6 6 6 5 5 5 5 5 4 4 6 6 5 5 5 6 6 6 5 4 4 3 3 8 11 5 1 6 6 7 7 6 4 4 5 nan
nan 9 11 7 5 5 5 6 6 5 5 5 5 5 4 5 4 5 5 6 5 6 7 7 6 6 4 3 4 7 13 13 6 3 7 6 9 9 5 5 4 5 nan
nan 9 11 9 5 5 5 6 6 5 5 5 5 4 4 4 4 4 6 7 5 6 7 7 7 5 4 3 6 15 13 2 2 6 6 5 7 8 6 8 5 5 nan
nan 7 10 9 6 5 6 5 5 5 5 4 4 4 4 4 4 4 5 6 7 6 6 6 6 4 4 4 11 13 5 3 4 5 6 6 9 6 6 6 6 5 nan
nan 7 9 8 9 5 4 5 5 5 5 4 4 4 4 4 4 4 4 4 5 5 5 5 4 4 4 5 12 12 5 3 4 5 6 6 9 7 6 5 5 6 nan
nan 7 9 7 6 7 8 7 4 5 5 4 4 4 5 5 4 4 3 4 4 3 3 4 3 4 4 4 10 12 8 5 3 5 5 7 7 5 5 5 5 5 nan
nan 6 7 7 6 7 9 8 7 5 5 4 5 5 4 5 5 6 5 5 4 3 3 3 3 3 5 7 9 7 5 4 6 6 9 9 7 6 5 5 5 5 nan
nan 5 6 6 6 5 6 6 6 5 5 6 6 6 6 6 6 6 8 8 7 6 8 7 7 7 7 7 8 7 6 7 7 7 9 9 6 6 6 6 6 6 nan
nan 5 6 6 6 5 6 5 6 7 6 7 6 5 5 6 7 8 8 8 8 11 10 10 10 9 8 6 7 8 7 7 7 8 10 8 6 6 5 5 5 5 nan
nan 6 5 7 6 6 6 7 6 6 6 6 6 6 7 6 7 7 7 6 7 10 10 10 10 10 10 7 7 7 7 6 6 7 12 9 6 6 5 5 5 5 nan
nan 6 6 6 7 8 6 6 7 7 6 6 7 8 8 7 7 7 7 7 8 8 9 7 8 10 9 8 9 9 7 8 6 6 11 14 7 6 5 5 5 5 nan
nan 8 6 5 7 7 7 7 6 7 7 7 7 8 8 6 7 7 8 7 8 8 8 9 8 7 9 11 12 10 8 7 7 6 6 15 13 6 6 5 6 6 nan
nan 9 7 5 6 7 7 6 6 7 8 7 7 8 7 8 8 6 7 8 8 7 6 8 9 11 11 11 10 9 10 8 7 7 7 7 14 14 9 6 6 7 nan
nan 8 6 6 6 6 7 8 7 7 8 8 8 8 8 8 7 6 6 7 8 9 8 7 8 8 8 10 9 9 9 8 8 7 7 7 8 12 15 12 7 6 nan
nan 7 7 7 8 8 7 8 9 9 8 7 7 8 8 7 6 6 5 6 8 9 9 8 8 8 6 7 8 10 9 10 10 9 8 7 7 7 10 15 14 11 nan
nan 7 6 8 9 8 7 7 9 9 8 10 9 7 8 8 7 6 6 6 8 9 8 9 8 8 8 8 9 9 10 11 10 10 9 9 9 8 8 9 12 15 nan
nan 8 8 7 6 5 7 7 8 9 9 9 10 9 7 7 8 6 6 6 6 8 8 7 8 8 9 9 9 10 11 10 11 11 11 9 10 11 9 8 8 9 nan
nan 5 7 6 5 5 5 8 9 9 9 10 9 10 9 8 8 8 7 7 5 6 7 9 8 8 8 8 10 8 6 9 10 9 10 11 12 11 11 9 8 9 nan
nan 8 6 7 5 6 5 5 6 8 9 8 10 10 10 9 8 8 7 8 7 7 6 8 9 8 8 7 9 7 7 9 7 7 7 9 9 8 8 11 10 9 nan
nan 6 7 7 7 7 6 6 7 7 6 7 9 7 9 10 9 8 8 7 8 8 7 7 8 9 8 6 8 9 10 10 6 8 8 6 8 8 8 8 8 9 nan
nan 11 8 7 7 8 6 6 6 5 7 9 8 8 9 10 11 9 8 8 7 7 9 7 6 9 7 9 8 6 8 9 10 8 6 7 8 9 10 8 9 7 nan
nan nan nan nan nan nan nan nan nan nan nan nan nan nan nan nan nan nan nan nan nan nan nan nan nan nan nan nan nan nan nan nan nan nan nan nan nan nan nan nan nan nan nan
CAPE
0 0 665 811 929 848 1100 1486 1830 2131 2054 2048 2332 2283 2255 2262 2221 2239 2096 2129 1829 1767 2116 2050 1825 1909 1869 1571 1495 1501 1494 1656 1720 1695 1640 1727 1700 1746 1633 1391 1431 1202 1673
0 0 845 1014 764 801 1184 1592 1853 1980 1933 2107 1824 1865 1975 1953 2071 2194 2174 2097 2064 2148 2158 2091 1985 1803 1920 1871 1599 1529 1836 1875 1614 1561 1431 1529 1659 1662 1620 1594 1595 1333 1670
0 0 814 1423 903 950 1261 1532 1873 2126 1792 2016 1871 2171 2088 2093 2082 1977 1892 1876 1864 1809 1212 1446 1685 1885 1620 1488 1380 1404 1629 1597 1557 1604 1545 1044 877 768 722 1017 941 820 871
0 161 757 1656 1426 1048 1545 1827 2237 2107 2327 2301 2354 2260 2109 1886 2048 1892 1847 1529 1279 1522 1992 1314 1177 1677 1719 1563 1408 1233 1268 1268 1276 1089 259 472 759 1209 755 673 915 1279 1333
183 327 847 1111 1229 1160 1647 2097 2404 2304 2146 2217 2182 2042 1842 1800 1748 2079 1826 1089 884 771 776 1212 957 1056 1026 1051 932 778 922 1361 1339 533 358 211 617 1022 1158 1043 1108 1154 790
168 473 975 1291 1251 1266 1678 2103 2128 2287 2241 2293 2057 1892 1782 1710 1810 1689 1425 1181 967 741 406 271 346 572 749 706 551 412 945 1459 917 277 516 1013 925 1530 1311 1398 1098 943 1022
99 340 930 1833 1742 1493 1857 2322 2147 2365 2462 2448 2124 1864 1863 1927 1935 1976 2257 1855 1570 1237 630 302 227 451 581 446 117 1604 1396 836 27 6 47 133 446 1125 866 1025 1012 957 906
248 401 892 1521 2063 1626 2135 2389 2394 2336 2615 2419 2053 1955 2069 2085 2018 2087 2120 2152 1999 1727 1308 935 629 484 354 164 48 1965 1213 673 278 387 316 270 644 527 458 1144 975 727 708
467 620 864 1165 1272 1669 2325 2292 2335 2563 2569 2287 1955 1780 1967 2023 2052 2105 2091 2007 1967 1991 1807 1458 1416 1252 837 509 356 1807 1560 1152 205 182 428 412 1350 1115 1061 883 653 509 524
264 155 539 648 594 1171 1988 2524 2565 2368 2018 2179 2018 1593 1613 1715 1861 2036 2206 2223 1943 1984 1924 1752 1408 1358 1694 1630 1292 1434 622 653 21 19 27 58 756 815 902 890 1003 1017 997
86 113 25 143 455 570 1338 1895 2397 2186 2054 2163 1740 1532 1194 740 1005 1563 1869 1887 2092 2015 2015 2084 2232 2569 2407 1936 1598 843 30 0 0 0 0 67 254 223 333 367 346 407 468
41 89 19 155 291 401 771 1346 1334 1479 1532 1512 1529 1360 964 538 782 1258 2059 2170 2288 2842 2997 3065 3157 3100 2918 1695 738 1810 573 0 0 0 0 121 142 85 83 91 82 78 107
6 123 35 101 151 329 10 750 887 1092 1242 1025 1132 996 897 1126 1157 1101 848 321 289 895 1271 1610 2211 2382 2132 1564 1046 724 1016 0 0 0 1 240 256 125 95 72 50 28 18
12 68 48 68 124 46 21 402 675 946 1027 942 974 944 749 801 711 500 225 21 226 596 869 1083 1033 1519 1553 1327 1087 881 589 0 0 0 0 209 502 308 223 192 169 140 112
38 46 57 19 178 40 154 242 490 718 994 882 1050 883 825 639 412 232 116 217 281 569 612 379 462 842 938 964 979 930 832 2 0 0 0 277 657 734 530 490 399 358 319
39 34 35 16 125 9 99 243 338 512 793 885 894 722 585 569 541 615 353 150 279 141 241 537 721 820 879 1021 370 700 826 0 0 0 0 34 1340 1239 936 843 796 697 599
14 2 5 58 101 0 80 185 428 474 794 903 831 607 580 780 398 524 740 878 304 248 560 590 729 887 905 967 286 46 42 17 33 14 3 26 272 1811 1491 1401 1657 1643 1138
76 3 55 277 231 45 74 180 411 572 808 917 653 408 555 402 267 483 932 1177 835 157 200 624 1068 641 552 835 694 339 209 66 75 65 36 36 129 446 1005 1835 1760 1873 1901
119 172 180 223 257 239 199 190 244 477 825 869 499 277 287 615 701 392 595 801 1081 163 328 1005 1160 803 846 1123 1185 1047 364 267 126 175 145 109 91 258 327 627 1836 1893 1810
96 113 133 146 206 101 95 94 224 306 392 490 518 308 179 378 552 386 365 632 934 385 408 852 770 826 1160 1315 1416 1021 267 448 257 276 268 308 212 154 172 170 312 1014 2115
9 25 0 151 52 59 31 34 76 346 196 355 355 282 80 356 377 624 511 574 716 593 66 488 786 1028 795 1173 453 341 124 319 361 128 138 219 158 236 374 333 281 312 476
1 0 0 71 1 60 99 19 39 82 9 51 168 261 176 266 284 386 492 484 630 1080 879 375 433 784 710 953 804 174 527 690 374 404 59 81 46 22 61 57 352 470 453
5 0 0 0 0 2 60 10 70 77 53 10 20 78 207 238 266 286 452 510 486 719 913 837 326 480 663 768 968 613 402 587 172 45 219 305 363 218 194 92 0 0 0
0 0 1 0 0 0 0 2 58 102 171 78 11 163 177 213 291 345 258 320 353 337 486 552 531 505 641 979 556 852 560 224 366 373 103 294 566 379 93 2 0 0 0
60 55 35 7 33 46 11 0 0 0 21 30 87 204 248 320 257 289 293 165 149 192 297 468 567 658 754 990 731 1157 693 780 458 300 776 686 309 90 9 0 0 0 0
78 102 97 171 87 75 90 12 0 2 6 30 39 72 181 304 302 253 351 248 88 234 391 422 346 453 911 900 1056 1119 605 196 142 454 557 318 135 93 0 0 0 0 0